Consulta los datos en tiempo real de la estación meteorológica de St. Llorenç del Munt i l'Obac
| Hora UTC | 04:35 |
|---|---|
| Temperatura | 19.2 ºC |
| Humedad | 82.2 % |
| Presión | 1023.8 hPa |
| Pluja | 0.0 mm |
| Velocidad viento | 5.8 km/h |
| Dirección viento | NNW |
| Radiación solar | 0.1 W/m² |
| Temperatura (ºC) | Humedad (%) | Presión (hPa) | Velocidad viento (km/h) | Precipitación (mm) | Radiación solar (W/m²) | |||||||||||||
|---|---|---|---|---|---|---|---|---|---|---|---|---|---|---|---|---|---|---|
| Hora UTC | Aire | Humedad | Presión | Vel. | Dir. | Vel. Max | Dir. | Intent. máx 5 min. | Rad. Sol. | |||||||||
| 00:05 | 18.1 | 89.1 | 1024.2 | 3.4 | SW | 3.4 | SW | 0.0 | 0.1 | |||||||||
| 00:10 | 18.2 | 89.3 | 1024.3 | 2.7 | SSW | 4.6 | SW | 0.0 | 0.1 | |||||||||
| 00:15 | 18.2 | 89.4 | 1024.3 | 2.6 | SSW | 3.5 | S | 0.0 | 0.1 | |||||||||
| 00:20 | 18.1 | 89.7 | 1024.3 | 3.1 | S | 4.6 | S | 0.0 | 0.1 | |||||||||
| 00:25 | 18.0 | 89.8 | 1024.3 | 1.0 | SSE | 2.1 | S | 0.0 | 0.1 | |||||||||
| 00:30 | 18.0 | 90.2 | 1024.3 | 0.0 | SE | 1.1 | SE | 0.0 | 0.1 | |||||||||
| 00:35 | 18.0 | 90.7 | 1024.3 | 2.8 | SSW | 4.9 | S | 0.0 | 0.1 | |||||||||
| 00:40 | 18.0 | 90.8 | 1024.4 | 5.0 | SSE | 7.4 | SSE | 0.0 | 0.1 | |||||||||
| 00:45 | 18.0 | 90.8 | 1024.5 | 4.1 | SSE | 7.1 | SSE | 0.0 | 0.1 | |||||||||
| 00:50 | 18.0 | 91.0 | 1024.5 | 2.1 | SSE | 3.5 | SSE | 0.0 | 0.1 | |||||||||
| 00:55 | 18.0 | 91.1 | 1024.5 | 2.5 | SSE | 4.2 | SSE | 0.0 | 0.1 | |||||||||
| 01:00 | 17.9 | 91.0 | 1024.4 | 2.5 | SE | 3.2 | SE | 0.0 | 0.1 | |||||||||
| 01:05 | 17.9 | 91.1 | 1024.3 | 3.0 | SE | 4.2 | SSE | 0.0 | 0.1 | |||||||||
| 01:10 | 17.8 | 91.2 | 1024.3 | 3.6 | SSE | 7.4 | S | 0.0 | 0.1 | |||||||||
| 01:15 | 17.9 | 91.4 | 1024.3 | 5.8 | S | 8.5 | S | 0.0 | 0.1 | |||||||||
| 01:20 | 18.0 | 91.4 | 1024.3 | 6.1 | S | 8.1 | SSW | 0.0 | 0.1 | |||||||||
| 01:25 | 18.0 | 91.3 | 1024.3 | 6.7 | SSW | 8.5 | SSW | 0.0 | 0.1 | |||||||||
| 01:30 | 18.0 | 91.2 | 1024.2 | 6.0 | S | 7.4 | S | 0.0 | 0.1 | |||||||||
| 01:35 | 18.0 | 91.1 | 1024.2 | 5.7 | S | 7.8 | S | 0.0 | 0.1 | |||||||||
| 01:40 | 18.0 | 91.1 | 1024.2 | 7.4 | S | 9.2 | S | 0.0 | 0.1 | |||||||||
| 01:45 | 18.0 | 90.9 | 1024.1 | 6.4 | S | 8.8 | SSE | 0.0 | 0.1 | |||||||||
| 01:50 | 18.0 | 90.6 | 1024.1 | 6.2 | S | 7.8 | S | 0.0 | 0.1 | |||||||||
| 01:55 | 18.0 | 90.2 | 1024.0 | 6.6 | S | 7.8 | SSE | 0.0 | 0.1 | |||||||||
| 02:00 | 18.0 | 89.8 | 1024.0 | 6.0 | S | 7.1 | S | 0.0 | 0.1 | |||||||||
| 02:05 | 18.1 | 89.3 | 1024.2 | 6.6 | SW | 9.5 | SW | 0.0 | 0.1 | |||||||||
| 02:10 | 18.3 | 88.1 | 1024.1 | 4.9 | SSW | 9.2 | SSW | 0.0 | 0.1 | |||||||||
| 02:15 | 18.3 | 87.1 | 1024.1 | 2.0 | SW | 5.3 | SW | 0.0 | 0.1 | |||||||||
| 02:20 | 18.4 | 86.4 | 1024.1 | 2.6 | WSW | 5.6 | SW | 0.0 | 0.1 | |||||||||
| 02:25 | 18.4 | 85.8 | 1024.1 | 2.4 | SSE | 6.0 | SSW | 0.0 | 0.1 | |||||||||
| 02:30 | 18.2 | 86.0 | 1024.0 | 3.2 | SE | 5.3 | SSE | 0.0 | 0.1 | |||||||||
| 02:35 | 18.2 | 86.5 | 1024.1 | 2.0 | SSW | 4.2 | SE | 0.0 | 0.1 | |||||||||
| 02:40 | 18.4 | 86.3 | 1024.1 | 1.2 | SW | 3.2 | WSW | 0.0 | 0.1 | |||||||||
| 02:45 | 18.4 | 85.6 | 1024.1 | 0.4 | SE | 2.1 | SSW | 0.0 | 0.1 | |||||||||
| 02:50 | 18.5 | 85.3 | 1024.0 | 0.2 | SW | 1.4 | SW | 0.0 | 0.1 | |||||||||
| 02:55 | 18.5 | 85.1 | 1024.0 | 1.8 | WNW | 5.3 | WNW | 0.0 | 0.1 | |||||||||
| 03:00 | 18.7 | 84.2 | 1024.0 | 4.0 | WNW | 6.7 | WNW | 0.0 | 0.1 | |||||||||
| 03:05 | 19.1 | 82.9 | 1024.0 | 5.1 | NW | 7.8 | NW | 0.0 | 0.1 | |||||||||
| 03:10 | 19.3 | 82.2 | 1024.1 | 6.9 | NW | 8.1 | NW | 0.0 | 0.1 | |||||||||
| 03:15 | 19.4 | 82.2 | 1024.0 | 7.9 | NW | 10.2 | NW | 0.0 | 0.1 | |||||||||
| 03:20 | 19.3 | 82.7 | 1024.1 | 8.1 | NW | 9.9 | NW | 0.0 | 0.1 | |||||||||
| 03:25 | 19.1 | 83.9 | 1024.1 | 5.8 | NW | 8.1 | NW | 0.0 | 0.1 | |||||||||
| 03:30 | 19.1 | 84.5 | 1024.0 | 5.0 | NW | 6.7 | NW | 0.0 | 0.1 | |||||||||
| 03:35 | 19.2 | 84.2 | 1024.0 | 6.0 | NW | 8.1 | NW | 0.0 | 0.1 | |||||||||
| 03:40 | 19.2 | 84.0 | 1024.0 | 4.5 | NNW | 6.4 | NNW | 0.0 | 0.1 | |||||||||
| 03:45 | 19.2 | 83.7 | 1024.0 | 6.5 | NNW | 8.8 | NW | 0.0 | 0.1 | |||||||||
| 03:50 | 19.2 | 83.7 | 1024.0 | 7.5 | NNW | 8.8 | NNW | 0.0 | 0.1 | |||||||||
| 03:55 | 19.1 | 83.5 | 1023.9 | 7.1 | NNW | 8.1 | NNW | 0.0 | 0.1 | |||||||||
| 04:00 | 19.2 | 83.0 | 1023.9 | 5.4 | NNW | 7.1 | NNW | 0.0 | 0.1 | |||||||||
| 04:05 | 19.2 | 82.7 | 1023.9 | 5.4 | NNW | 6.7 | NNW | 0.0 | 0.1 | |||||||||
| 04:10 | 19.2 | 82.5 | 1023.9 | 6.7 | NNW | 8.1 | NNW | 0.0 | 0.1 | |||||||||
| 04:15 | 19.2 | 82.2 | 1023.9 | 5.9 | NNW | 7.8 | NNW | 0.0 | 0.1 | |||||||||
| 04:20 | 19.3 | 82.2 | 1023.8 | 3.3 | NNW | 6.0 | N | 0.0 | 0.1 | |||||||||
| 04:25 | 19.2 | 82.5 | 1023.9 | 5.7 | N | 8.5 | NNW | 0.0 | 0.1 | |||||||||
| 04:30 | 19.2 | 82.6 | 1023.8 | 5.1 | NNW | 6.7 | NNW | 0.0 | 0.1 | |||||||||
| 04:35 | 19.2 | 82.2 | 1023.8 | 5.8 | NNW | 7.4 | NNW | 0.0 | 0.1 | |||||||||
| Máxima | 19.4 | 91.4 | 1024.5 | 8.1 | NW | 10.2 | NW | 0.0 | 0.1 | |||||||||
| Mínima | 17.8 | 82.2 | 1023.8 | |||||||||||||||
| Total | 0.0 | |||||||||||||||||